{"data":{"norad_id":69223,"epoch":"2026-09-19T06:41:42.048960Z","epoch_age_seconds":132532,"freshness":"FRESH","line1":"1 69223U 26115N   26262.27895890  .00016998  00000+0  52743-3 0  9999","line2":"2 69223  97.2802 278.3949 0002429 142.0331 218.1084 15.33457847 19107","mean_motion":15.33457847,"eccentricity":0.0002429,"inclination_deg":97.2802,"raan_deg":278.3949,"arg_perigee_deg":142.0331,"mean_anomaly_deg":218.1084,"bstar":0.00052743,"rev_number":1910,"period_min":93.905417929626,"perigee_km":463.8426304817,"apogee_km":467.16727174155,"semimajor_km":6843.6419511116,"source":"CELESTRAK","updated_at":"2026-09-20T09:00:44.104264Z"}}